Date,TemperatureHighF,TemperatureAvgF,TemperatureLowF,DewpointHighF,DewpointAvgF,DewpointLowF,HumidityHigh,HumidityAvg,HumidityLow,PressureMaxIn,PressureMinIn,WindSpeedMaxMPH,WindSpeedAvgMPH,GustSpeedMaxMPH,PrecipitationSumIn
2013-7-1,81,71,61,62,55,11,83,59,13,29.82,29.75,0,0,1,0.00
2013-7-2,76,66,62,66,60,6,99,84,10,29.87,29.78,55,0,55,0.12
2013-7-3,86,71,57,66,62,7,99,76,43,29.91,29.82,97,1,12,0.00
2013-7-4,88,75,63,71,64,59,99,71,40,29.91,29.83,0,0,1,0.19
2013-7-5,79,74,65,74,67,7,99,84,10,29.91,29.82,0,0,0,0.00
2013-7-6,78,78,78,72,72,72,81,81,81,29.88,29.84,0,0,0,0.00
2013-7-7,93,80,68,74,72,68,99,80,50,29.86,29.81,0,0,0,0.00
2013-7-8,92,92,92,72,72,72,52,52,52,29.93,29.82,0,0,0,0.00
2013-7-9,92,92,92,72,72,72,52,52,52,29.86,29.73,0,0,0,0.00
2013-7-11,92,92,65,72,72,64,99,53,52,29.91,29.85,0,0,0,0.73
2013-7-12,65,61,49,64,61,49,99,99,99,29.91,29.89,122,16,0,0.00
2013-7-13,83,77,70,66,63,59,82,63,45,29.93,29.91,0,0,0,0.00
2013-7-14,88,81,77,72,71,70,85,73,55,29.95,29.95,0,0,0,0.00
2013-7-15,115,76,34,78,67,-16,99,80,10,30.05,29.98,3,0,0,0.25
2013-7-16,99,87,78,79,70,29,99,70,10,30.13,30.02,0,0,0,0.25
2013-7-21,79,70,-13,78,69,-14,99,98,92,29.70,29.67,0,0,0,0.31
2013-7-22,96,78,68,78,72,25,99,85,10,29.69,29.60,0,0,0,0.00
2013-7-23,90,79,69,78,72,65,99,79,50,29.74,29.58,0,0,0,0.00
2013-7-24,73,65,61,60,59,57,99,83,57,29.85,29.82,0,0,0,0.00
2013-7-25,86,70,54,65,58,54,99,73,38,29.95,29.85,0,0,0,0.00
2013-7-26,75,74,73,73,72,72,99,93,90,29.80,29.79,0,0,0,0.00
2013-7-27,75,67,54,72,55,48,99,70,42,29.83,29.79,0,0,1,0.38
2013-7-28,78,70,56,59,56,51,96,62,47,29.87,29.82,0,0,1,0.00